Regional Weather Roundup
Issued by NWS Grand Forks, ND

Home | Current Version | Previous Version | Text Only | Print | Product List | Glossary Off
Versions: 1 2 3 4 5 6 7 8 9 10 11 12 13 14 15 16 17 18 19 20 21 22 23 24 25 26 27 28 29 30 31 32 33 34 35 36 37 38 39 40 41 42 43 44 45 46 47 48 49 50

000
ASUS43 KFGF 022231
RWRFGF
PRAIRIE TO PINES  WEATHER ROUNDUP
NATIONAL WEATHER SERVICE EASTERN NORTH DAKOTA/GRAND FORKS ND
500 PM CDT TUE JUN 02 2015

 **SATELLITE DATA USED TO AUGMENT SKY COVER AT AUTOMATED STATIONS**
 *****  WEATHER ACROSS EASTERN NORTH DAKOTA  *****

CITY           SKY/WX    TMP DP  RH WIND       PRES   REMARKS
GRAND FORKS    CLOUDY    69  60  73 SE3       29.79S
GRAND FRKS AFB CLOUDY    68  61  77 E2        29.78F
GRAND FRKS NWS   N/A     66 N/A N/A SE1         N/A
DEVILS LAKE    CLOUDY    63  57  82 E16       29.78S
FARGO          CLOUDY    77  62  59 S13G21    29.75F
WAHPETON ARPT  MOCLDY    81  59  47 S20G28    29.75F
$$

 ***** WEATHER ACROSS CENTRAL AND WESTERN NORTH DAKOTA  *****

CITY           SKY/WX    TMP DP  RH WIND       PRES   REMARKS
BISMARCK       MOSUNNY   78  65  63 E8        29.71F
MINOT          CLOUDY    62  57  83 NE15      29.78S
JAMESTOWN      PTSUNNY   78  63  59 S14G21    29.71F
MINOT AFB      CLOUDY    61  61 100 NE14      29.78S
GARRISON         N/A     71  62  73 NE8       29.75R
WILLISTON      CLOUDY    59  55  87 N10G22    29.77R
DICKINSON      SUNNY     74  56  53 W21G26    29.76R
HETTINGER      SUNNY     76  56  49 W18       29.78F
$$

 *****  OTHER AIRPORT OBSERVATIONS IN OUR AREA  *****

CITY           SKY/WX    TMP DP  RH WIND       PRES   REMARKS
WALHALLA       FAIR      63  63 100 MISG      29.82F
GRAFTON AIRPOR CLOUDY    63  63 100 N7        29.81S
VALLEY CITY AR CLOUDY    77  66  69 S5        29.73F
CANDO          CLOUDY    63  59  88 E13G18    29.81S
CAVALIER APRT  LGT RAIN  61  61 100 NE6       29.82S
GWINNER        NOT AVBL
SHEYENNE NWR     N/A     81  63  53 S13       29.95
ROLLA          CLOUDY    57  57 100 NE9       29.84S
 ***** THE ABOVE OBSERVATIONS ARE NON NWS ARE NOT QUALITY
       CONTROLLED AND MAY MIS-REPORT RAIN FOR SNOW...
$$

  *****  WEATHER ACROSS NORTHERN MINNESOTA  *****

CITY           SKY/WX    TMP DP  RH WIND       PRES   REMARKS
FLAG ISLAND    HVY RAIN  57  57 100 SE7       29.83S
WARROAD        LGT RAIN  63  57  82 CALM      29.84S
ROSEAU         RAIN      63  57  82 CALM      29.83S
HALLOCK        RAIN      63  61  94 NE6       29.81F
THF RVR FALLS  CLOUDY    68  59  73 S3        29.82F
BAUDETTE       CLOUDY    62  58  86 E5        29.85S
WASKISH        CLOUDY    66  59  77 CALM      29.83F
CROOKSTON      CLOUDY    70  61  73 CALM      29.80F
STEPHEN NDAWN    N/A     64  63  94 S2          N/A
GREENBUSH NDAW   N/A    N/A N/A N/A VRB7        N/A
$$
  *****  WEATHER ACROSS CENTRAL AND WEST MINNESOTA  *****

CITY           SKY/WX    TMP DP  RH WIND       PRES   REMARKS
FOSSTON        CLOUDY    68  64  88 SE6       29.82F
BEMIDJI        CLOUDY    70  54  55 S12G17    29.84S
PARK RAPIDS    CLOUDY    73  51  46 S17G26    29.85S
ELBOW LAKE     FAIR      80  60  50 S25G32    29.78F
WADENA         PTSUNNY   72  55  56 SE14G21   29.84F
DETROIT LAKES  MOSUNNY   72  55  56 SE16G22   29.82F
MOORHEAD       PTSUNNY   79  61  53 S16G23    29.76F
FERGUS FALLS   PTSUNNY   79  59  50 S21G28    29.78S
MORRIS MN      MOSUNNY   82  59  44 S23G33    29.77S
STAPLES        CLOUDY    66  54  63 SE10      29.85F
$$
  *****  WEATHER ELSEWHERE ACROSS MINNESOTA  *****

CITY           SKY/WX    TMP DP  RH WIND       PRES   REMARKS
DULUTH         MOSUNNY   67  46  47 SE8       29.93F
INTRNTL FALLS  CLOUDY    65  57  75 SE5       29.85F
ELY            CLOUDY    72  46  40 S10G16    29.89F
CLOQUET        PTSUNNY   73  48  40 S9G18     29.92S
WHEATON        SUNNY     79  61  53 S18G26    29.76S
BRAINERD       CLOUDY    70  53  54 S12       29.90S
HIBBING        CLOUDY    73  45  36 S10G20    29.89S
ALEXANDRIA     MOSUNNY   77  54  44 S22G31    29.84F
SAINT CLOUD    CLOUDY    72  54  53 SE18      29.89S
MINNEAPOLIS    PTSUNNY   75  53  46 SE15G25   29.94F
$$

  *****  WEATHER ACROSS SOUTH DAKOTA  *****

CITY           SKY/WX    TMP DP  RH WIND       PRES   REMARKS
SIOUX FALLS    PTSUNNY   78  62  57 S17G26    29.83F
BROOKINGS      SUNNY     79  63  57 S17G31    29.81F
WATERTOWN      SUNNY     80  61  52 S25G33    29.76F
HURON          MOSUNNY   85  61  44 S17G32    29.73F
SISSETON         N/A     84  61  45 S23       29.73F
ABERDEEN       PTSUNNY   87  63  44 S21G28    29.70F
MITCHELL       SUNNY     85  62  46 S15G30    29.76F
PIERRE         MOSUNNY   88  56  33 W12       29.69S
MOBRIDGE       PTSUNNY   88  63  43 NW10      29.67S
RAPID CITY     PTSUNNY   79  57  46 N16       29.81F
$$

  *****  SOME WEATHER IN NEARBY STATES *****

CITY           SKY/WX    TMP DP  RH WIND       PRES   REMARKS
GLASGOW MT     CLOUDY    61  52  72 N7        29.90R
GREAT FALLS MT PTSUNNY   62  51  67 N14       29.87R THUNDER
CHEYENNE WY    MOSUNNY   81  31  16 W6G17     29.95F
SCOTTSBLUFF NE PTSUNNY   87  51  28 VRB3      29.79F
OMAHA NE       CLOUDY    74  60  61 SE22G29   29.92F
DES MOINES IA  PTSUNNY   73  55  53 S17       30.01F
DAVENPORT IA   MOSUNNY   74  46  36 SE8       30.06F
CHICAGO IL     MOSUNNY   69  45  41 E5        30.09S
EAU CLAIRE WI  MOSUNNY   72  48  42 S13       30.00F
LA CROSSE WI   PTSUNNY   74  49  41 S9        30.03F
$$

  *****  SOME NATIONAL WEATHER *****

CITY           SKY/WX    TMP DP  RH WIND       PRES   REMARKS
LA GUARDIA NY  LGT RAIN  54  50  86 NE7       30.13R
RALEIGH NC     CLOUDY    78  66  66 S3        29.96S
ATLANTA GA     PTSUNNY   84  61  45 W8        29.94S
NEW ORLEANS LA MOSUNNY   88  56  33 VRB5      29.91F
OKLAHOMA CITY  PTSUNNY   87  66  49 S16G25    29.91F
ALBUQUERQUE NM MOSUNNY   88  21   8 SW6       30.02F
SALT LAKE CITY MOSUNNY   79  41  25 NW8       29.92F
LOS ANGELES CA MOSUNNY   68  58  70 W14G20    29.97F
BOISE ID       MOSUNNY   74  39  28 W12G17    29.96S
SEATTLE WA     CLOUDY    61  49  64 SW17G23   30.04S
$$

*** WEATHER ACROSS MANITOBA...SASKATCHEWAN AND ONTARIO ***
                ***ONTARIO***

CITY           SKY/WX    TMP DP  RH WIND       PRES   REMARKS
GERALDTON      PTSUNNY   66  36  32 SW20G25   29.98F
THUNDER BAY    PTSUNNY   64  39  39 S8G17     29.99S
SIOUX LOOKOUT  CLOUDY    61  52  72 S8        29.88S
TORONTO        MOSUNNY   64  45  48 S9        30.15F
BIG TROUT LK   SUNNY     66  39  37 NW13G21   29.75S
PICKLE LAKE    CLOUDY    64  48  55 SW12      29.83S
DRYDEN         CLOUDY    61  54  77 S14       29.87F
KENORA         LGT RAIN  63  57  82 SW6       29.86R
$$
                *** MANITOBA***

CITY           SKY/WX    TMP DP  RH WIND       PRES   REMARKS
BRANDON        LGT RAIN  63  46  55 NE20      29.86F
DAUPHIN        SUNNY     64  34  32 NE14      29.92F
ISLAND LAKE    MOSUNNY   63  34  34 W10       29.83S
PILOT MOUND      N/A     61  55  82 NE12        N/A
THE PAS        MOSUNNY   63  28  27 N8        29.94S
THOMPSON       PTSUNNY   57  30  35 NW18G30   29.84
WINNIPEG       CLOUDY    68  50  52 NE15      29.84S
LYNN LAKE      MOSUNNY   54  27  35 NW22G32   29.90R
CHURCHILL      LGT RAIN  41  36  81 W28G40    29.57R
GILLAM         PTSUNNY   46  34  61 NW17G31   29.78S
$$
                ***SASKATCHEWAN***

CITY           SKY/WX    TMP DP  RH WIND       PRES   REMARKS
ESTEVAN        LGT RAIN  55  54  94 NE16      29.86S
KINDERSLEY     CLOUDY    66  36  32 E10       29.97F
LLOYDMINSTER   CLOUDY    57  36  44 E9        30.00F
PRINCE ALBERT  PTSUNNY   63  28  27 VRB6      29.99F
REGINA         CLOUDY    63  34  34 NE10G17   29.94R
YORKTON        SUNNY     64  30  27 NE10G17   29.90F
N. BATTLEFORD  SUNNY     59  30  33 N6        30.03F
LA RONGE       MOSUNNY   63  27  25 N13       29.99F
SASKATOON      PTSUNNY   63  28  27 NE13      30.00F
SWIFT CURRENT  SUNNY     59  43  55 E13       29.96F
$$
NOTE: THESE ARE AUTOMATED STATIONS WITH LIMITED QUALITY CONTROL
      "FAIR" INDICATES FEW OR NO CLOUDS BELOW 12,000 FEET WITH NO
      SIGNIFICANT WEATHER AND/OR OBSTRUCTIONS TO VISIBILITY.
      SKY/WX - SKY CONDITION AND SIGNIFICANT WEATHER.
      TMP - AIR TEMPERATURE.    DP   - DEWPOINT TEMPERATURE.
      RH  - RELATIVE HUMIDITY.  PRES - PRESSURE.
      HX  - HEAT INDEX.         WCI  - WIND CHILL INDEX.
$


USA.gov is the U.S. government's official web portal to all federal, state and local government web resources and services.